Showing default

GOSAT-GW, 64694

Orbit data source: Space-Track

GOSAT-GW, 64694 is a payload satellite owned by JAXA (JP) in SSO that was launched on Sat, 28 Jun 2025 UTC via an H-IIA 202 launch vehicle from the Tanegashima Space Center (TNSTA). Payload-class satellites include a variety of spacecraft equipped with specific instruments for various scientific and technological missions. These include communications satellites like Starlink; space stations such as the ISS; scientific satellites like the Hubble; Earth observation satellites from companies like Planet Labs, Umbra, and HawkEye 360; GPS; miniature CubeSats for education and research; and military/defense satellites.

Loading next visibility...
Identifier
64694, 2025-141A
Orbit
SSO
Country
Flag of JPJP / JPN
Related business
Manufacturer
MELCO
Mission
Operational Civil Earth Obs Sci
Bus & Motor
GOSAT, AOCS
Mass
2,900 kg wet, ~2,900 kg dry
Launch date (UTC)
2025-06-28 (8 months ago)
Launch vehicle
H-IIA 202
Launch site
Tanegashima Space Center (TNSTA)
Object type
Payload
Rocket body
Debris
Shape & HBR
Box + 2 Pan, 12.0 m
Radar Cross Section
21.792 m², Large (>1 m²)

Expand to show TLE details & history
Last TLE update: 6 hours ago

TLE from 6 hours ago
0 GOSAT-GW
1 64694U 25141A   26061.82719575  .00001627  00000-0  29520-3 0  9998
2 64694  98.0498   0.9191 0001411  83.9802 276.1564 14.67560855 36249
Epoch: 2026-03-02T19:51Z
TLE epoch observation values (Epoch: 2026-03-02T19:51:09.712Z)
Latitude
0.00001°
Longitude
-97.48639°
Altitude
671.759 km
Speed
7.521 km/s
True Right ascension
00h 03m 40s
True Declination
0° 00' 00"
Sunlit
Object was in daylight at epoch
Visualization orbit readout
Latitude
Unknown
Longitude
Unknown
Altitude
Unknown
Speed
Unknown
Apparent Right ascension
Unknown
Apparent Declination
Unknown
Sunlit
N/A
Visualization observer readout
Local Sidereal Time
05:21:35
Azimuth
Unknown
Elevation
Unknown
Doppler factor
Unknown
Orbital elements
Apogee altitude
666.924 km
Perigee altitude
664.936 km
Semi-major axis
7,044.067 km
Eccentricity
0.00014
Inclination
98.0498°
RAAN
0.9191°
Arg. of periapsis
83.9802°
True anomaly
276.14032°
Mean anomaly
276.1564°
Eccentric anomaly
276.14836°
Mean motion
3.6712 °/min
Orbital period
98.06 mins
BSTAR
0.0002952
Loading maneuver chart data...
Computing Atmospheric mass density...
Loading historical data...
Loading historical data...
Loading historical data...
Loading historical data...
Loading historical data...
Loading historical data...
Loading historical data...
Other satellites on launch #141 in the year 2025 (2025-06-28 UTC)

Documentation

Showing up to 5 results
|